Terminal Aerodrome Forecast
Issued by NWS

Home | Current Version | Previous Version | Text Only | Print | Product List | Glossary On
Versions: 1 2 3 4 5 6 7 8 9 10 11 12 13 14 15
162
FTAK31 PAJN 301744
TAFASI
TAF
PASI 301744Z 3018/3118 17012KT P6SM VCSH BKN040 OVC060
      TEMPO 3018/3021 VRB05G15KT 6SM -SHRA BKN030 OVC040
     FM310000 14012G20KT P6SM VCSH OVC040 WS020/15035KT
     FM310200 13015G30KT 6SM -RA BR BKN030 OVC040 WS020/15045KT
     FM310500 13025G35KT 3SM RA BR BKN020 OVC030 WS020/15050KT
     FM311200 15015G25KT 4SM -RA BR OVC020=

USA.gov is the U.S. government's official web portal to all federal, state and local government web resources and services.